DELTA 1 DEB, 7042

Orbit data source: Space-Track

DELTA 1 DEB, 7042 is space debris in SSO originally from a launch on Tue, 06 Nov 1973 UTC launched from the Air Force Western Test Range (AFWTR). Debris objects in space refer to the collection of defunct objects orbiting the Earth. Examples of debris include non-operational satellites, rocket bodies, and fragments generated from explosions, collisions, or faulty payload assembly.

Loading next visibility...
Identifier
7042, 1973-086AJ
Orbit
SSO
Country
Flag of USUS
Related business
Manufacturer
Unknown
Mission
Spacecraft
Bus & Motor
Unknown
Mass
Unknown
Launch date (UTC)
1973-11-06 (53 years ago)
Launch vehicle
Unknown
Launch site
Air Force Western Test Range (AFWTR)
Object type
Payload
Rocket body
Debris
Shape & HBR
Unknown shape, 0.1 m
Radar Cross Section
Medium (>0.1 m² and <1 m²)

Expand to show TLE details & history
Last TLE update: 17 hours ago

TLE from 17 hours ago
0 DELTA 1 DEB
1  7042U 73086AJ  26197.66872323  .00000449  00000-0  60034-3 0  9992
2  7042 101.7224  92.2350 0317870   8.1719 352.4418 13.48394757566213
Epoch: 2026-07-16T16:02Z
TLE epoch observation values (Epoch: 2026-07-16T16:02:57.687Z)
Latitude
0.00003°
Longitude
-83.01224°
Altitude
846.021 km
Speed
7.546 km/s
True Right ascension
06h 08m 56s
True Declination
0° 00' 00"
Sunlit
Object was in daylight at epoch
Visualization orbit readout
Latitude
Unknown
Longitude
Unknown
Altitude
Unknown
Speed
Unknown
Apparent Right ascension
Unknown
Apparent Declination
Unknown
Sunlit
N/A
Visualization observer readout
Local Sidereal Time
21:18:44
Azimuth
Unknown
Elevation
Unknown
Doppler factor
Unknown
Orbital elements
Apogee altitude
1,312.516 km
Perigee altitude
838.653 km
Semi-major axis
7,453.721 km
Eccentricity
0.03179
Inclination
101.7224°
RAAN
92.235°
Arg. of periapsis
8.1719°
True anomaly
351.94308°
Mean anomaly
352.4418°
Eccentric anomaly
352.19445°
Mean motion
3.37274 °/min
Orbital period
106.74 mins
BSTAR
0.00060034
Loading maneuver chart data...
Computing Atmospheric mass density...
Loading historical data...
Loading historical data...
Loading historical data...
Loading historical data...
Loading historical data...
Loading historical data...
Loading historical data...

Documentation

Showing up to 5 results
|